Wind_Speed
51 53 56 58 61 62 65 67 67 68 71 75 72 70 73 76 76 67 68 71 69 69 71 66 60 56 57 60 60 59 60 56 57 52 51 49 43 42 41 39 38 36 36 35
54 57 60 62 65 68 71 74 73 71 75 80 77 74 76 79 79 79 74 72 72 73 74 74 65 57 61 61 60 58 58 61 57 51 50 49 47 44 43 42 39 36 35 35
57 61 64 67 72 73 75 79 78 80 82 84 85 86 82 82 85 85 84 78 76 75 74 77 73 60 64 62 63 62 63 52 54 51 52 51 46 44 41 39 37 37 37 36
60 64 68 71 75 78 80 68 74 78 80 83 77 92 87 86 88 85 88 87 82 81 79 77 76 64 65 64 65 62 60 58 55 49 50 49 46 44 42 40 39 38 37 36
64 67 71 73 72 70 69 61 59 61 61 57 64 56 79 65 71 68 70 77 79 78 81 79 79 67 64 67 65 57 59 55 58 55 50 49 47 45 42 40 39 39 38 37
65 69 64 63 51 49 48 48 47 42 37 42 36 39 33 15 21 24 22 48 59 67 77 80 77 68 66 65 67 64 62 58 61 55 52 48 45 43 41 39 39 39 38 38
60 50 37 43 40 30 39 46 48 38 32 35 29 36 27 23 26 27 29 37 39 53 68 80 77 70 60 64 64 62 53 56 59 54 51 46 44 41 39 39 39 42 39 42
62 43 29 33 33 34 38 38 33 36 34 32 23 29 34 30 26 31 36 37 28 30 59 76 79 81 59 61 63 57 60 56 49 51 52 46 44 44 41 38 43 49 44 42
56 41 20 31 30 37 31 30 26 29 33 32 27 31 32 33 27 27 33 41 21 27 36 62 83 81 72 54 58 64 61 53 40 43 47 45 42 39 41 37 49 45 45 42
42 34 17 25 29 33 34 29 24 25 35 40 31 30 31 31 25 31 20 27 27 29 38 38 72 75 77 63 60 58 47 45 47 42 43 45 43 42 51 50 50 51 45 43
26 21 16 24 29 31 28 27 20 29 33 35 42 31 30 25 37 29 18 18 21 24 27 44 63 73 74 60 60 49 57 49 44 43 40 42 43 42 38 40 51 50 51 37
19 24 21 22 26 27 27 27 23 25 32 28 38 33 34 33 37 37 13 26 23 13 30 43 27 62 81 58 55 60 51 44 43 47 42 44 52 40 43 40 40 48 46 44
21 23 22 21 28 32 27 27 31 27 27 30 33 34 38 34 35 31 7 18 23 10 20 37 21 49 64 60 68 58 52 51 48 43 39 40 40 43 47 43 49 52 48 47
21 24 31 35 35 36 29 29 30 29 28 31 25 40 38 25 25 30 11 18 13 11 30 21 19 45 64 53 58 48 42 48 46 42 42 46 39 36 36 40 49 47 51 51
28 32 36 32 30 28 25 29 28 21 19 27 27 29 36 20 27 26 16 10 19 12 15 11 18 36 49 51 48 41 50 42 36 35 35 39 28 30 31 34 37 45 46 48
27 29 29 20 27 24 21 28 20 14 13 17 22 25 34 25 21 18 14 15 21 17 13 10 31 34 40 43 56 43 46 36 28 35 34 25 29 31 32 28 28 38 45 42
25 28 26 19 24 17 19 22 17 8 12 14 16 20 18 17 19 19 14 21 18 17 16 12 28 39 44 42 46 43 39 35 33 35 30 24 25 32 35 35 36 39 38 42
22 23 26 22 22 21 19 21 17 9 10 12 15 16 15 10 15 18 10 24 30 20 17 19 21 44 39 50 48 31 37 40 33 30 28 25 27 34 37 36 39 37 40 40
23 25 27 28 25 20 17 21 14 11 15 14 14 13 11 12 8 14 14 19 32 28 22 22 18 21 26 33 31 32 36 30 27 25 25 26 29 34 32 33 35 33 31 34
24 25 28 29 29 26 18 17 15 14 17 16 9 9 12 13 10 19 13 12 29 38 35 32 29 28 24 25 26 26 23 23 21 23 27 28 27 25 27 29 31 33 37 41
28 29 29 28 29 25 18 15 15 12 13 14 14 10 13 12 4 16 14 13 18 28 32 36 36 34 31 31 31 29 27 26 24 26 22 21 21 23 25 29 34 38 39 40
27 27 25 26 26 19 11 10 8 9 7 9 20 11 15 11 9 5 5 11 14 21 24 28 30 29 32 29 31 29 25 23 19 18 18 17 20 25 31 33 35 38 41 43
18 20 20 22 22 14 12 4 3 7 3 11 14 10 14 14 7 2 11 5 13 20 24 23 22 23 27 24 24 21 16 12 11 14 18 23 27 29 30 35 37 36 34 32
11 15 15 16 20 12 9 7 4 2 5 16 15 13 7 5 3 5 5 14 11 18 18 14 18 16 15 12 9 8 11 13 16 19 21 24 27 31 34 33 28 29 33 35
6 10 12 16 18 15 9 8 7 3 4 19 16 13 8 7 4 6 5 4 4 7 3 7 1 3 6 8 10 11 13 17 17 21 24 27 28 24 24 27 30 35 36 39
5 6 7 12 15 18 15 11 10 8 7 19 17 15 11 10 12 8 3 1 2 3 4 4 5 8 10 10 11 13 16 18 20 22 18 18 22 25 29 33 39 41 44 46
Wind_Direction
293 292 292 292 290 288 286 283 280 278 277 272 269 266 264 263 261 256 256 255 248 245 244 246 240 238 239 241 243 248 248 243 241 240 245 249 252 254 253 252 252 253 257 261
295 295 295 293 292 290 289 287 285 282 279 274 270 265 262 261 259 257 252 250 251 244 241 241 240 233 232 237 240 240 242 252 235 235 240 244 245 247 248 248 250 253 257 262
298 297 296 295 294 293 293 290 287 283 279 277 273 265 262 259 257 255 253 249 246 247 242 237 237 229 227 232 238 238 246 245 234 234 239 241 243 245 248 248 249 250 254 258
299 299 299 298 297 295 294 293 290 288 285 283 280 275 267 262 257 254 250 246 244 241 241 235 232 228 224 227 234 240 244 227 242 227 233 235 237 239 241 243 246 251 256 259
304 302 301 301 301 301 299 302 302 299 296 291 283 282 275 271 261 260 255 249 244 237 235 234 226 223 225 225 231 232 233 239 241 237 228 231 233 237 241 245 248 252 257 259
305 305 307 305 306 311 317 314 309 305 299 291 300 283 288 284 288 242 271 245 242 235 231 230 222 215 225 225 226 232 243 238 230 227 225 230 235 239 243 247 248 255 257 258
311 315 311 302 299 313 324 312 309 305 294 304 303 287 285 275 273 267 279 246 233 233 227 225 218 211 218 221 223 232 242 227 226 221 224 228 236 240 242 246 250 255 254 259
313 314 303 305 318 317 316 316 309 303 301 307 289 281 296 292 281 278 275 236 220 239 229 220 213 210 212 221 220 228 229 224 232 234 223 227 232 235 241 247 237 247 240 260
315 317 310 302 313 322 323 314 308 304 293 310 303 292 298 285 282 292 265 232 229 243 237 222 210 210 210 209 214 223 236 221 224 229 222 227 230 232 238 238 248 240 247 277
316 313 309 300 311 320 321 328 305 298 299 297 303 311 295 278 293 318 253 222 242 245 223 221 210 213 212 206 212 221 221 206 222 232 219 224 224 235 231 231 239 250 258 276
320 325 324 311 311 312 321 317 310 304 307 306 304 302 317 298 359 355 243 229 250 222 201 200 210 209 211 210 201 217 221 218 226 228 224 235 225 233 229 238 248 254 260 270
328 326 326 318 317 318 321 327 317 305 299 298 305 293 307 306 353 357 244 242 246 224 202 202 195 211 204 206 209 215 213 217 217 219 230 236 235 233 245 248 255 261 248 261
331 329 324 325 321 326 322 325 321 308 301 303 294 287 308 315 6 3 2 212 201 227 239 206 214 209 209 212 206 207 215 214 213 218 228 232 228 246 237 255 258 260 255 250
323 321 319 320 318 315 319 315 317 307 299 288 303 295 304 310 5 2 10 175 202 247 236 239 235 207 206 209 197 203 211 209 216 230 226 237 249 250 256 256 259 253 257 256
319 318 316 323 313 319 315 307 315 299 291 298 302 308 296 339 11 1 13 157 182 191 240 253 194 201 199 196 196 198 197 209 222 211 228 234 238 247 251 254 259 260 260 258
334 334 333 336 322 321 325 316 317 284 278 306 322 321 295 315 7 21 35 101 166 188 209 228 184 195 210 212 201 205 206 212 220 222 223 231 237 236 243 247 261 259 259 264
343 343 344 346 340 340 333 332 324 298 276 302 322 319 333 339 14 45 66 85 130 168 220 220 184 201 207 193 194 203 207 208 219 223 233 240 252 242 243 254 254 255 257 269
334 345 350 345 340 338 334 333 327 305 281 302 324 320 326 344 38 38 51 104 111 159 168 169 172 195 193 197 197 210 213 222 217 222 229 242 245 245 249 251 251 257 262 266
325 331 333 340 348 336 330 338 319 293 281 290 316 304 299 300 5 48 52 113 115 131 148 165 166 169 190 204 203 212 203 205 215 226 236 230 230 234 242 251 262 265 271 275
316 322 327 328 332 328 316 322 312 293 286 288 279 275 265 286 96 78 53 110 111 115 126 140 130 129 146 175 184 186 186 192 208 221 222 227 238 252 260 261 271 273 279 286
312 319 324 329 327 323 301 297 295 295 264 263 260 266 245 277 231 94 76 69 117 118 126 133 141 144 149 156 159 169 179 192 199 211 226 236 242 257 261 268 275 283 295 302
309 319 335 332 329 342 319 298 289 293 275 220 248 243 225 255 246 83 86 115 111 132 135 137 145 149 156 160 173 176 181 193 203 215 230 247 257 265 274 285 296 303 302 296
324 326 341 333 346 350 359 17 320 278 199 163 211 215 215 220 260 106 101 156 131 129 128 132 140 157 167 167 172 178 172 177 208 237 248 257 268 280 295 298 299 294 292 297
332 336 353 359 5 3 7 11 333 2 177 140 183 189 199 221 175 129 54 92 125 130 121 119 132 133 135 145 147 179 213 236 253 269 282 290 301 302 296 293 291 296 300 303
346 352 9 15 16 26 32 30 32 63 143 133 164 170 160 144 162 155 124 70 66 123 77 1 20 182 183 194 221 234 249 259 278 290 300 298 295 290 292 299 302 302 306 309
55 25 31 31 25 33 37 46 55 81 135 128 147 157 161 154 157 167 166 165 231 269 260 254 234 221 236 250 281 283 283 293 297 292 291 289 292 298 306 307 304 305 305 304
Height
5698 5694 5689 5684 5679 5676 5671 5667 5665 5663 5656 5648 5657 5662 5660 5658 5660 5668 5671 5672 5677 5681 5686 5693 5702 5711 5717 5721 5726 5732 5736 5742 5747 5753 5757 5762 5767 5769 5772 5774 5775 5776 5777 5779
5686 5680 5675 5669 5662 5657 5651 5645 5644 5646 5632 5620 5630 5639 5639 5638 5639 5642 5649 5654 5658 5663 5668 5674 5684 5693 5701 5708 5715 5721 5724 5728 5736 5741 5745 5750 5754 5758 5762 5764 5767 5769 5769 5770
5671 5664 5658 5651 5642 5637 5631 5617 5618 5614 5604 5598 5597 5603 5615 5616 5613 5616 5623 5631 5635 5643 5650 5657 5666 5677 5686 5694 5701 5709 5715 5718 5724 5729 5735 5740 5745 5749 5754 5757 5758 5760 5761 5761
5657 5648 5641 5632 5622 5615 5613 5592 5592 5585 5578 5573 5566 5556 5587 5584 5581 5581 5590 5598 5612 5618 5625 5636 5649 5661 5670 5680 5691 5700 5702 5706 5711 5717 5724 5731 5736 5740 5744 5747 5750 5752 5753 5754
5641 5631 5622 5613 5601 5590 5591 5576 5569 5564 5555 5545 5550 5533 5550 5549 5552 5560 5565 5571 5579 5590 5600 5613 5630 5644 5655 5664 5675 5686 5692 5696 5700 5706 5714 5720 5726 5732 5736 5739 5742 5744 5745 5746
5626 5614 5605 5597 5588 5577 5572 5564 5559 5553 5547 5537 5541 5532 5533 5540 5539 5539 5542 5543 5554 5565 5578 5592 5611 5628 5640 5651 5663 5672 5679 5687 5688 5695 5703 5711 5719 5724 5727 5731 5733 5735 5736 5737
5613 5602 5594 5586 5581 5577 5569 5558 5546 5545 5542 5535 5534 5528 5531 5536 5534 5532 5532 5533 5538 5543 5555 5572 5591 5612 5624 5637 5649 5662 5667 5672 5679 5686 5693 5703 5710 5715 5719 5722 5725 5725 5727 5728
5600 5595 5589 5580 5574 5569 5566 5555 5546 5538 5536 5530 5531 5527 5529 5527 5526 5524 5522 5523 5525 5534 5539 5552 5575 5595 5610 5624 5639 5648 5659 5665 5673 5678 5685 5693 5701 5706 5710 5712 5714 5715 5719 5721
5586 5585 5582 5573 5569 5563 5561 5553 5546 5538 5534 5527 5524 5525 5523 5522 5520 5515 5512 5514 5517 5524 5529 5541 5560 5578 5595 5610 5625 5636 5648 5655 5662 5670 5677 5684 5691 5696 5698 5699 5705 5705 5709 5710
5580 5575 5577 5573 5568 5560 5555 5550 5544 5540 5531 5523 5521 5519 5517 5515 5511 5505 5502 5508 5514 5516 5521 5533 5550 5567 5582 5597 5612 5629 5639 5646 5654 5660 5668 5675 5681 5686 5690 5692 5696 5698 5701 5702
5575 5574 5575 5568 5564 5559 5555 5548 5542 5536 5533 5525 5516 5514 5514 5510 5504 5498 5504 5506 5507 5510 5516 5528 5545 5558 5569 5585 5602 5618 5629 5641 5647 5654 5660 5666 5672 5677 5681 5686 5689 5691 5693 5694
5574 5571 5568 5566 5561 5556 5551 5545 5539 5534 5532 5529 5521 5514 5513 5505 5499 5495 5496 5497 5502 5506 5512 5527 5537 5548 5562 5577 5594 5610 5622 5631 5640 5649 5654 5661 5666 5670 5675 5678 5680 5682 5683 5685
5574 5569 5565 5564 5558 5551 5547 5542 5535 5531 5528 5527 5519 5514 5514 5504 5499 5495 5494 5495 5496 5504 5512 5521 5533 5544 5559 5574 5587 5602 5614 5624 5633 5640 5647 5653 5657 5664 5667 5670 5673 5674 5675 5676
5572 5568 5562 5556 5551 5546 5541 5536 5531 5527 5526 5521 5523 5511 5511 5505 5500 5495 5492 5494 5499 5506 5513 5522 5530 5540 5557 5570 5584 5597 5607 5618 5625 5632 5640 5645 5651 5654 5658 5661 5663 5665 5666 5667
5570 5566 5559 5553 5544 5540 5536 5530 5530 5524 5523 5520 5521 5517 5510 5506 5503 5499 5496 5494 5500 5507 5515 5522 5528 5540 5554 5567 5580 5592 5601 5609 5619 5626 5633 5639 5643 5646 5650 5654 5656 5657 5659 5660
5568 5561 5555 5550 5543 5537 5533 5525 5524 5521 5522 5522 5520 5518 5511 5510 5508 5504 5502 5498 5501 5508 5516 5524 5531 5539 5551 5564 5577 5588 5597 5605 5613 5620 5627 5632 5636 5640 5645 5647 5649 5650 5651 5651
5566 5559 5552 5547 5542 5536 5532 5526 5523 5521 5522 5524 5522 5518 5516 5515 5513 5510 5508 5503 5503 5509 5518 5526 5529 5541 5551 5561 5574 5585 5593 5602 5609 5615 5619 5625 5630 5634 5639 5641 5642 5642 5643 5644
5564 5558 5552 5546 5541 5536 5531 5524 5522 5522 5522 5524 5523 5521 5519 5520 5516 5516 5515 5508 5507 5515 5521 5527 5533 5542 5550 5562 5572 5580 5588 5596 5603 5609 5615 5619 5625 5629 5632 5634 5637 5637 5637 5637
5561 5556 5551 5545 5540 5536 5531 5526 5522 5522 5523 5524 5525 5524 5524 5523 5520 5522 5521 5516 5514 5517 5524 5531 5536 5542 5549 5558 5567 5576 5585 5592 5598 5605 5611 5616 5620 5623 5627 5630 5631 5631 5630 5629
5559 5554 5550 5544 5539 5534 5530 5527 5522 5521 5522 5523 5526 5525 5526 5526 5526 5527 5527 5526 5522 5523 5528 5532 5538 5543 5550 5558 5566 5576 5583 5590 5596 5602 5608 5614 5619 5621 5624 5624 5625 5624 5622 5620
5556 5552 5547 5541 5535 5531 5526 5524 5522 5522 5525 5524 5527 5528 5528 5528 5530 5531 5533 5532 5532 5532 5535 5538 5542 5547 5555 5562 5571 5577 5584 5589 5594 5601 5607 5611 5616 5617 5618 5617 5617 5615 5613 5612
5553 5548 5544 5539 5532 5527 5523 5520 5519 5519 5520 5522 5526 5530 5531 5531 5533 5535 5537 5538 5537 5540 5541 5545 5550 5554 5560 5567 5574 5580 5584 5590 5597 5601 5606 5609 5608 5608 5609 5609 5609 5608 5605 5601
5551 5548 5543 5537 5531 5526 5522 5519 5518 5517 5519 5521 5527 5530 5533 5536 5539 5540 5541 5542 5545 5546 5550 5553 5557 5562 5566 5572 5579 5585 5588 5592 5596 5597 5599 5602 5602 5602 5602 5602 5600 5596 5593 5590
5551 5547 5542 5537 5533 5527 5524 5521 5519 5518 5519 5522 5528 5532 5536 5539 5543 5544 5546 5547 5550 5552 5555 5558 5563 5567 5570 5575 5577 5581 5585 5588 5590 5593 5594 5596 5596 5595 5594 5592 5590 5587 5584 5581
5552 5548 5544 5539 5534 5529 5525 5522 5519 5519 5521 5524 5529 5536 5540 5544 5547 5549 5551 5553 5556 5558 5560 5561 5566 5568 5570 5574 5578 5578 5580 5585 5586 5588 5588 5589 5589 5588 5586 5583 5580 5579 5574 5571
5552 5549 5546 5542 5538 5533 5529 5525 5522 5521 5522 5527 5533 5539 5544 5548 5550 5553 5556 5557 5560 5561 5564 5567 5569 5571 5574 5575 5576 5578 5580 5579 5580 5582 5582 5582 5581 5578 5576 5575 5574 5570 5567 5563